Lid_Strength_Index
12 12 12 13 13 12 14 14 17 14 14 11 9 9 8 7 7 6 6 7 6 6 5 5 4 4 4 4 3 3 3 3 3 2 2 2 3 2 2 2 2 2 3 3
15 12 12 13 12 12 12 12 13 13 13 8 8 8 8 8 7 7 7 7 6 5 5 5 4 4 4 4 3 3 3 3 3 3 3 3 2 2 3 3 3 3 4 3
17 13 13 16 13 13 12 11 12 15 12 9 10 9 8 8 7 7 7 6 6 5 5 4 4 4 5 4 3 3 3 3 4 4 4 4 4 4 4 4 4 4 5 5
17 14 20 13 9 10 11 10 10 10 10 9 9 8 7 7 7 7 7 6 6 5 5 4 4 4 4 6 6 3 3 3 3 3 4 4 4 4 4 4 4 4 4 4
17 17 14 12 11 12 13 13 9 10 9 8 8 8 8 6 6 7 7 7 5 4 4 4 4 3 3 4 4 3 3 3 3 4 4 4 4 3 3 3 4 5 4 4
15 19 20 14 10 8 9 15 9 9 9 9 8 12 10 7 7 7 6 6 6 4 4 4 4 3 4 4 4 4 3 3 3 3 3 3 3 3 3 3 3 3 4 3
15 17 15 10 9 7 16 14 9 9 8 8 10 9 8 7 6 6 6 6 5 4 4 4 3 3 4 4 4 3 3 3 3 3 2 2 3 2 2 3 4 4 4 4
15 17 19 8 9 13 10 9 8 8 8 8 7 7 7 7 6 6 6 7 5 4 4 3 3 3 4 4 3 4 3 3 3 2 2 2 2 2 2 4 4 4 4 3
14 14 9 7 8 8 9 9 8 8 7 7 7 7 7 6 6 6 6 5 4 4 4 4 3 3 4 4 3 3 3 3 3 2 2 2 2 3 3 3 4 4 4 3
12 10 10 8 8 7 7 7 7 7 6 6 7 6 6 5 5 5 5 5 4 4 5 4 3 3 3 3 3 3 3 3 3 3 3 2 2 2 3 4 4 4 3 3
11 9 8 8 9 8 7 7 7 7 6 7 7 6 6 6 5 5 5 4 4 4 4 4 3 3 3 3 2 3 3 3 3 3 3 6 8 7 3 5 4 4 3 3
13 8 9 10 8 6 8 8 7 6 7 6 6 6 6 6 5 5 5 4 4 4 4 4 3 3 3 2 2 3 3 3 4 4 4 6 6 7 13 12 10 10 8 6
9 6 8 8 7 7 7 7 6 6 7 7 7 7 7 8 7 6 4 4 4 4 4 3 3 3 2 2 2 3 3 4 4 5 5 5 5 5 7 10 13 12 13 11
7 8 9 8 8 7 7 6 6 7 7 8 8 8 8 8 7 6 5 4 4 4 4 3 3 4 3 3 2 3 3 7 3 3 4 4 4 4 4 3 5 7 12 11
8 8 8 8 7 7 6 7 8 8 8 9 9 9 9 9 9 8 6 4 4 5 6 3 3 4 2 2 2 3 3 3 3 4 4 5 4 4 3 4 5 6 7 10
9 9 8 7 7 7 8 8 9 10 10 10 10 10 11 10 9 9 8 7 7 8 7 7 6 6 2 2 3 3 3 8 6 4 4 4 4 4 5 5 5 4 4 7
10 10 10 9 8 8 8 8 9 10 10 11 11 11 12 11 10 10 10 8 8 8 8 8 8 6 3 3 3 3 3 4 7 3 3 4 4 4 4 4 4 4 5 7
9 9 9 8 8 8 8 8 9 9 11 11 10 11 12 12 12 11 11 9 8 9 11 10 9 6 6 4 3 3 3 3 3 3 3 4 4 4 4 4 4 4 5 8
9 9 9 8 8 8 8 8 9 10 11 11 11 12 12 12 11 12 12 12 12 12 12 11 11 8 7 9 4 3 3 3 2 3 3 6 3 3 3 3 3 3 3 5
9 9 9 9 8 9 9 9 10 11 11 12 12 12 13 13 12 12 11 13 13 13 11 11 10 9 8 8 7 4 4 4 3 3 3 3 3 3 4 6 3 4 5 7
9 9 9 10 9 9 9 9 10 11 12 12 12 13 13 12 12 13 13 13 13 13 12 11 11 10 8 9 7 7 7 6 5 5 5 5 4 3 6 7 8 7 8 9
9 9 10 10 10 10 9 9 10 10 11 12 12 12 13 14 12 13 13 14 13 15 12 12 12 14 9 11 9 8 8 9 8 8 7 7 8 8 9 10 10 11 12 12
8 8 9 10 10 10 10 10 10 10 11 11 12 12 13 13 13 14 15 13 13 14 12 13 15 14 14 8 9 9 10 10 10 10 9 10 10 10 11 11 11 12 13 14
7 8 9 9 10 10 11 11 11 11 11 11 10 11 12 13 12 12 12 13 14 14 13 14 14 15 13 11 10 9 10 11 11 12 11 12 12 12 12 13 13 14 14 14
4 7 8 9 10 11 11 11 11 12 11 11 11 11 11 11 12 12 11 11 13 12 12 14 14 14 12 12 12 12 12 12 11 11 11 12 13 13 13 13 14 14 14 14
4 5 7 8 9 10 10 11 11 11 12 12 12 11 11 11 11 11 11 12 11 12 12 12 11 11 12 12 12 12 13 13 13 13 14 13 14 14 14 14 14 15 15 15
7 6 4 7 8 8 10 11 11 11 11 11 13 12 12 11 12 12 13 11 11 11 11 11 12 13 12 12 13 13 13 13 14 13 13 14 14 14 14 15 15 15 15 16